User: anonymous   Login
Location: Unspecified
(0.0000°N, 0.0000°E)
Time: 07:37:07
(UTC+00:00)
Language:

Shinsei - Orbit

View from above orbital plane
View from above orbital plane
View from above satellite
View from above satellite

Ground track
Ground track

The orbit data is extracted from the following two-line orbital elements,

1 05485U 71080A   18115.88463849  .00000054  00000-0  51894-4 0  9994
2 05485  32.0566  11.1564 0640237 175.7203 184.9202 12.74129347169889
Epoch (UTC): 25 April 2018 21:13:52
Eccentricity: 0.0640237
inclination: 32.0566°
perigee height: 869 km
apogee height: 1861 km
right ascension of ascending node: 11.1564°
argument of perigee: 175.7203°
revolutions per day: 12.74129347
mean anomaly at epoch: 184.9202°
orbit number at epoch: 16988

The dashed part of the orbit path shows where the satellite is in the earth's shadow,  

DLR